Location: Rounton
(54.4000°N, 1.3500°W)
Time: 02:38:04
(UTC+00:00)

A-11 Canister half - Pass Details

Date: 29 November 2021
Orbit: 1524 x 1684 km, 47.3° (Epoch: 19 January)

Event Time Altitude Azimuth Distance (km) Brightness Sun altitude
Exits shadow 03:05:32 38° 146° (SE) 2,372 9.9 -41.3°
Drops below altitude 10° 03:14:08 10° 86° (E) 3,876 11.7 -40.2°
Sets 03:17:30 0° 79° (ENE) 4,843 12.5 -39.7°
